Tucson, AZ

9:46 AM MST on September 23, 2019 (GMT -0700)
Tucson International

Weather History for KTUS - July, 2019

Change the Weather History Date:

Saturday, July 13, 2019

  Actual Average Record
Temperature  
Mean Temperature 89 °F 88 °F  
Max Temperature 106 °F 100 °F 110 °F (1987)
Min Temperature 72 °F 75 °F 62 °F (1936)
Degree Days  
Heating Degree Days 0 0  
Month to date heating degree days 0 0  
Since 1 June heating degree days 0 0  
Since 1 July heating degree days 0 0  
Cooling Degree Days 24 22  
Month to date cooling degree days 323 298  
Year to date cooling degree days 1308 1394  
Since 1 June cooling degree days 936 892  
Growing Degree Days 40 (Base 50)    
Moisture  
Dew Point 55 °F    
Average Humidity 35    
Maximum Humidity 69    
Minimum Humidity 12    
Precipitation  
Precipitation 0.26 in 0.07 in 0.62 in (1912)
Month to date precipitation 0.28 0.67  
Year to date precipitation 5.31 3.94  
Sea Level Pressure  
Sea Level Pressure 29.83 in    
Wind  
Wind Speed 6 mph (NNE)    
Max Wind Speed 29 mph    
Max Gust Speed 43 mph    
Visibility 9 miles    
Events Rain , Thunderstorm    
T = Trace of Precipitation, MM = Missing Value Source: NWS Daily Summary

Daily Weather History Graph

Daily Weather History Graph

Search for Another Location

Airport or City:

Astronomy

Jul. 13, 2019 Rise Set
Actual Time 5:26 AM MST 7:31 PM MST
Civil Twilight 4:59 AM MST 7:59 PM MST
Nautical Twilight 4:25 AM MST 8:33 PM MST
Astronomical Twilight 3:48 AM MST 9:09 PM MST
Moon 4:59 PM MST (7/13) 2:46 AM MST (7/13)
Length of Visible Light 15h 00m
Length of Day
14h 05m
Waxing Gibbous, 90% of the Moon is Illuminated
Jul 13
Waxing Gibbous
Jul 16
Full
Jul 24
Last Quarter
Jul 31
New
Aug 7
First Quarter

Hourly Weather History & Observations

Time (MST) Temp. Heat Index Dew Point Humidity Pressure Visibility Wind Dir Wind Speed Gust Speed Precip Events Conditions
12:53 AM 90.0 °F - 50.0 °F 25% 29.76 in 10.0 mi Calm Calm - N/A   Clear
1:53 AM 90.0 °F - 52.0 °F 27% 29.76 in 10.0 mi SSE 6.9 mph - N/A   Clear
2:53 AM 87.1 °F - 52.0 °F 30% 29.75 in 10.0 mi SE 6.9 mph - N/A   Clear
3:53 AM 84.9 °F - 51.1 °F 31% 29.75 in 10.0 mi SE 6.9 mph - N/A   Clear
4:53 AM 82.0 °F - 51.1 °F 34% 29.78 in 10.0 mi ESE 5.8 mph - N/A   Clear
5:53 AM 81.0 °F - 52.0 °F 36% 29.80 in 10.0 mi SSE 5.8 mph - N/A   Clear
6:53 AM 82.9 °F 81.8 °F 53.1 °F 36% 29.83 in 10.0 mi Calm Calm - N/A   Clear
7:53 AM 84.0 °F 82.5 °F 53.1 °F 34% 29.85 in 10.0 mi Calm Calm - N/A   Clear
8:53 AM 91.0 °F 88.7 °F 54.0 °F 28% 29.85 in 10.0 mi Calm Calm - N/A   Clear
9:53 AM 93.0 °F 90.8 °F 54.0 °F 27% 29.84 in 10.0 mi Calm Calm - N/A   Clear
10:53 AM 96.1 °F 93.5 °F 53.1 °F 23% 29.83 in 10.0 mi Variable 5.8 mph - N/A   Clear
11:53 AM 99.0 °F - 52.0 °F 21% 29.81 in 10.0 mi East 3.5 mph - N/A   Clear
12:53 PM 100.9 °F - 52.0 °F 19% 29.79 in 10.0 mi NNW 8.1 mph - N/A   Clear
1:53 PM 102.9 °F - 51.1 °F 18% 29.75 in 10.0 mi North 9.2 mph - N/A   Clear
2:53 PM 102.9 °F - 51.1 °F 18% 29.73 in 10.0 mi West 10.4 mph 18.4 mph N/A   Partly Cloudy
3:53 PM 102.0 °F - 50.0 °F 17% 29.72 in 10.0 mi WNW 15.0 mph 24.2 mph N/A   Scattered Clouds
4:53 PM 97.0 °F - 50.0 °F 20% 29.75 in 10.0 mi NE 11.5 mph - N/A   Mostly Cloudy
5:00 PM 93.0 °F 90.6 °F 53.1 °F 26% 29.92 in 6.0 mi NE 16.1 mph 25.3 mph 0.00 in Rain , Thunderstorm Light Thunderstorms and Rain
5:11 PM 84.0 °F 84.0 °F 60.1 °F 44% 29.93 in 4.0 mi NE 15.0 mph 34.5 mph 0.06 in Rain , Thunderstorm Heavy Thunderstorms and Rain
5:27 PM 78.1 °F - 63.0 °F 60% 29.93 in 6.0 mi NNW 24.2 mph 34.5 mph 0.17 in Rain , Thunderstorm Heavy Thunderstorms and Rain
5:34 PM 75.9 °F - 63.0 °F 64% 29.95 in 6.0 mi NNW 19.6 mph 39.1 mph 0.20 in Rain , Thunderstorm Rain
5:48 PM 73.4 °F - 62.6 °F 69% 29.95 in 6.0 mi NW 20.7 mph 42.6 mph 0.26 in Rain , Thunderstorm Thunderstorms and Rain
5:53 PM 73.0 °F - 62.1 °F 68% 29.83 in 6.0 mi NW 23.0 mph 42.6 mph 0.26 in Rain , Thunderstorm Light Thunderstorms and Rain
6:35 PM 81.0 °F 81.6 °F 60.1 °F 49% 29.96 in 10.0 mi NW 8.1 mph - 0.00 in   Clear
6:53 PM 82.9 °F 83.2 °F 60.1 °F 46% 29.83 in 10.0 mi NW 8.1 mph - 0.00 in   Clear
7:53 PM 84.0 °F 84.0 °F 60.1 °F 44% 29.84 in 10.0 mi NW 8.1 mph - N/A   Clear
8:53 PM 84.0 °F 84.5 °F 62.1 °F 47% 29.83 in 10.0 mi Calm Calm - N/A   Clear
9:53 PM 84.0 °F 83.8 °F 59.0 °F 43% 29.85 in 10.0 mi ESE 6.9 mph - N/A   Clear
10:53 PM 82.9 °F 83.2 °F 60.1 °F 46% 29.88 in 10.0 mi East 4.6 mph - N/A   Clear
11:53 PM 82.0 °F 83.0 °F 62.1 °F 51% 29.86 in 10.0 mi SSE 4.6 mph - N/A   Clear